Weather History for Louisville Bowman, KY

Change the Weather History Date:

Tuesday, February 19, 2013

  Actual Average Record
Temperature  
Mean Temperature 36 °F 39 °F  
Max Temperature 48 °F 48 °F 68 °F (1986)
Min Temperature 24 °F 31 °F 5 °F (1979)
Degree Days  
Heating Degree Days 29 26  
Month to date heating degree days 529 532  
Since 1 July heating degree days 2980 3141  
Cooling Degree Days 0 0  
Month to date cooling degree days 0 0  
Year to date cooling degree days 0 0  
Moisture  
Dew Point 27 °F    
Average Humidity 63    
Maximum Humidity 86    
Minimum Humidity 40    
Precipitation  
Precipitation 0.20 in 0.12 in 0.60 in (1949)
Month to date precipitation 0.87 2.17  
Year to date precipitation 5.74 5.55  
Sea Level Pressure  
Sea Level Pressure 29.94 in    
Wind  
Wind Speed 15 mph (West)    
Max Wind Speed 26 mph    
Max Gust Speed 37 mph    
Visibility 9 miles    
Events Rain , Thunderstorm    
T = Trace of Precipitation, MM = Missing Value Source: NWS Daily Summary

Daily Weather History Graph

Daily Weather History Graph

Search for Another Location

Airport:

Trip Planner

Search our weather history database for the weather conditions in past years. The results will help you decide how hot, cold, wet, or windy it might be!

Date:

Astronomy

Feb. 19, 2013 Rise Set
Actual Time 7:27 AM EST 6:25 PM EST
Civil Twilight 7:00 AM EST 6:52 PM EST
Nautical Twilight 6:30 AM EST 7:23 PM EST
Astronomical Twilight 5:59 AM EST 7:54 PM EST
Moon 12:59 PM EST (2/19) 2:56 AM EST (2/19)
Length of Visible Light 11h 51m
Length of Day
10h 58m
Waxing Gibbous, 67% of the Moon is Illuminated
Feb 19
Waxing Gibbous
Feb 25
Full
Mar 4
Last Quarter
Mar 11
New
Mar 19
First Quarter

Hourly Weather History & Observations

Time (EST) Temp. Windchill Dew Point Humidity Pressure Visibility Wind Dir Wind Speed Gust Speed Precip Events Conditions
12:53 AM 46.9 °F - 39.9 °F 77% 29.75 in 10.0 mi South 18.4 mph 25.3 mph 0.01 in   Overcast
1:53 AM 48.0 °F - 39.9 °F 74% 29.73 in 10.0 mi South 13.8 mph 33.4 mph 0.00 in Rain Light Rain
2:30 AM 46.4 °F 40.1 °F 41.0 °F 81% 29.74 in 9.0 mi SSW 15.0 mph 27.6 mph 0.03 in Rain Light Rain
2:53 AM 46.0 °F 39.9 °F 42.1 °F 86% 29.75 in 5.0 mi SSW 13.8 mph 21.9 mph 0.04 in Rain Light Rain
3:33 AM 46.4 °F 40.1 °F 42.8 °F 87% 29.77 in 4.0 mi West 15.0 mph 25.3 mph 0.05 in Rain Rain
3:42 AM 42.8 °F 34.5 °F 37.4 °F 81% 29.79 in 4.0 mi West 18.4 mph 28.8 mph 0.06 in Rain Light Rain
3:49 AM 41.0 °F 32.2 °F 37.4 °F 87% 29.79 in 4.0 mi WNW 18.4 mph 26.5 mph 0.08 in Rain , Thunderstorm Rain
3:53 AM 39.9 °F 30.8 °F 36.0 °F 86% 29.80 in 4.0 mi WNW 18.4 mph 29.9 mph 0.09 in Rain , Thunderstorm Rain
4:01 AM 39.2 °F 29.8 °F 35.6 °F 87% 29.80 in 4.0 mi WNW 18.4 mph 29.9 mph 0.02 in Rain , Thunderstorm Thunderstorms and Rain
4:15 AM 39.2 °F 29.6 °F 35.6 °F 87% 29.81 in 5.0 mi WNW 19.6 mph 28.8 mph 0.03 in Rain Rain
4:44 AM 37.4 °F 30.8 °F 33.8 °F 87% 29.84 in 9.0 mi West 9.2 mph 18.4 mph 0.05 in Rain Light Rain
4:53 AM 37.9 °F 31.5 °F 34.0 °F 86% 29.85 in 10.0 mi West 9.2 mph 17.3 mph 0.05 in Rain Light Rain
5:53 AM 37.9 °F 29.2 °F 34.0 °F 86% 29.86 in 8.0 mi West 15.0 mph 21.9 mph 0.00 in   Overcast
6:10 AM 37.4 °F 28.5 °F 32.0 °F 81% 29.87 in 10.0 mi West 15.0 mph 27.6 mph N/A   Overcast
6:53 AM 36.0 °F 27.5 °F 28.9 °F 76% 29.89 in 10.0 mi West 12.7 mph 25.3 mph N/A   Overcast
7:53 AM 34.0 °F 28.0 °F 25.0 °F 70% 29.94 in 10.0 mi West 6.9 mph 24.2 mph 0.01 in   Overcast
8:41 AM 33.8 °F 24.8 °F 24.8 °F 70% 29.95 in 10.0 mi WSW 12.7 mph 23.0 mph N/A   Overcast
8:53 AM 34.0 °F 25.0 °F 25.0 °F 70% 29.96 in 10.0 mi West 12.7 mph 19.6 mph N/A   Overcast
9:19 AM 33.8 °F 23.9 °F 24.8 °F 70% 29.95 in 10.0 mi WSW 15.0 mph 21.9 mph N/A   Overcast
9:53 AM 34.0 °F 22.1 °F 21.9 °F 61% 29.96 in 10.0 mi WSW 21.9 mph 29.9 mph N/A   Mostly Cloudy
10:53 AM 34.0 °F 24.6 °F 21.0 °F 59% 29.99 in 10.0 mi WSW 13.8 mph 23.0 mph N/A   Overcast
11:53 AM 35.1 °F 25.2 °F 19.9 °F 54% 30.01 in 10.0 mi West 16.1 mph 26.5 mph N/A   Mostly Cloudy
1:53 PM 37.0 °F 26.7 °F 18.0 °F 46% 30.02 in 10.0 mi WSW 19.6 mph 27.6 mph N/A   Partly Cloudy
2:53 PM 37.0 °F 27.0 °F 17.1 °F 44% 30.03 in 10.0 mi West 18.4 mph 26.5 mph N/A   Mostly Cloudy
3:53 PM 39.0 °F 29.6 °F 18.0 °F 43% 30.05 in 10.0 mi West 18.4 mph 29.9 mph N/A   Scattered Clouds
4:53 PM 37.0 °F 25.6 °F 15.1 °F 41% 30.08 in 10.0 mi West 24.2 mph 33.4 mph N/A   Partly Cloudy
5:53 PM 35.1 °F 23.8 °F 16.0 °F 46% 30.10 in 10.0 mi West 20.7 mph 28.8 mph N/A   Clear
7:53 PM 30.9 °F 22.8 °F 17.1 °F 57% 30.17 in 10.0 mi West 9.2 mph - N/A   Clear
8:53 PM 30.0 °F 21.1 °F 17.1 °F 59% 30.17 in 10.0 mi WNW 10.4 mph - N/A   Clear
9:53 PM 28.0 °F 17.0 °F 16.0 °F 61% 30.19 in 10.0 mi WNW 13.8 mph 21.9 mph N/A   Clear
10:53 PM 26.1 °F 14.5 °F 14.0 °F 60% 30.21 in 10.0 mi WNW 13.8 mph - N/A   Clear
11:53 PM 25.0 °F 14.8 °F 12.9 °F 60% 30.22 in 10.0 mi WNW 10.4 mph - N/A   Partly Cloudy